User: anonymous   Login
Location: Unspecified
(0.0000°N, 0.0000°E)
Time: 17:19:43
(UTC+00:00)
Language:

deb r/b Ablestar - Orbit

View from above orbital plane
View from above orbital plane
View from above satellite
View from above satellite

Ground track
Ground track

The orbit data is extracted from the following two-line orbital elements,

1 00335U 61015DM  16269.19142546  .00000459  00000-0  26774-3 0  9997
2 00335  66.8422 193.5403 0047510 272.3204  87.2449 14.16584193823956
Epoch (UTC): 25 September 2016 04:35:39
Eccentricity: 0.0047510
inclination: 66.8422°
perigee height: 802 km
apogee height: 871 km
right ascension of ascending node: 193.5403°
argument of perigee: 272.3204°
revolutions per day: 14.16584193
mean anomaly at epoch: 87.2449°
orbit number at epoch: 82395

The dashed part of the orbit path shows where the satellite is in the earth's shadow,  

DLR